Location: ???????
(55.3754°N, 39.3545°E)
Time: 15:17:13
(UTC+00:00)

CZ-4B R/B - Pass Details

Date: 14 April 2026
Orbit: 442 x 559 km, 97.8° (Epoch: 17 May)

Event Time Altitude Azimuth Distance (km) Brightness Sun altitude
Exits shadow 18:19:59 27° 156° (SSE) 966 3.5 -14.7°
Maximum altitude 18:21:50 79° 74° (ENE) 491 2.4 -14.9°
Drops below altitude 10° 18:25:19 10° 347° (NNW) 1,625 6.1 -15.2°
Sets 18:27:20 0° 346° (NNW) 2,491 7.2 -15.5°
